Weather in Sarga

Russia / Sverdlovsk Oblast     57°11′51″N   58°56′26″E
temp.,
°C
wind,
m/s
gust,
m/s
humid.,
%
clouds,
%
prec.,
mm/h
press.,
hPa
HPBL,
m
26 july, mon
mon2623:00+9nnw1171100 0.0 101911
02:00+11w1164100 0.0 101926
05:00+10w2464100 0.0 1020111
08:00+12wnw3760100 0.0 1020327
11:00+16wnw474273 0.0 10192336
14:00+17w4741100 0.0 10182149
17:00+15wnw376093 0.1 1017651
20:00+14w396536 0.1 1017573
27 july, tue
tue2723:00+10wsw288728 0.1 1017159
02:00+11wsw311758 0.0 1016341
05:00+10sw4137885 0.0 1014401
08:00+12wsw41076100 0.1 1013587
11:00+11w4998100 3.3 1012585
14:00+13w389418 0.6 1012543
17:00+16wnw4767100 0.9 10111286
20:00+14nnw47675 0.3 1011681
28 july, wed
wed2823:00+7wnw22944 0.3 101316
02:00+5w22955 0.0 101319
05:00+7w3108555 0.0 1012308
08:00+11w4116963 0.0 1011696
11:00+12wnw51173100 0.4 10101434
14:00+13nw6105564 0.4 10111650
17:00+13nw584836 0.4 10111699
20:00+12wnw37575 0.0 1012738
29 july, thu
thu2923:00+6w228581 0.0 101322
02:00+8s267195 0.0 1011133
05:00+9ssw3990100 0.4 1009208
08:00+9ssw379531 1.6 1009161
11:00+19wnw51050100 1.7 10082112
14:00+17w266299 0.1 1007786
17:00+21wsw495089 0.2 10061788
20:00+14sw379797 6.0 1006217
30 july, fri
fri3023:00+13ssw4997100 8.2 1006194
02:00+12sw389820 0.0 1006177
05:00+12sw399953 0.1 1006260
08:00+14wsw3897100 0.1 1007358
11:00+15sw3593100 0.1 1006458
14:00+21ssw3564100 0.0 10051157
17:00+18sw4687100 0.8 1004478
20:00+17ssw1295100 0.8 100456